カタログに戻る

ATLAS 5 CENTAUR DEB

運用中HEO
NORAD 43981·DEBRIS·🇺🇸 United States

打ち上げ Sep 17, 2014 から Cape Canaveral Space Force Station

Loading…

次のパス (今後24時間)

TLE

経年Source: Space-Track

元期: Aug 28, 2026, 22:53 UTC

1 43981U 14055AL  26240.95376427 -.00000084  00000-0  00000+0 0  9999
2 43981  20.1398 131.6342 5091447 179.9348 180.1533  1.78788093 52088

AllMySatでATLAS 5 CENTAUR DEBをリアルタイム追跡

Download on the App Store